Probability
5 6 6 5 6 7 7 6 6 6 6 5 3 2 2 3 5 5 6 8 9 9 8 8 9 8 6 4 3 3 2 4 6 6 3 1 0 0 0 0 0 0 0
6 7 6 4 5 7 7 7 7 7 7 6 4 2 2 3 5 6 7 9 9 8 8 8 8 6 4 3 4 4 4 4 6 6 4 1 0 0 0 0 0 0 0
7 6 5 5 6 8 8 8 9 9 9 7 6 5 5 6 8 9 10 11 10 9 8 8 7 5 3 4 5 5 4 5 6 6 4 1 0 0 0 0 0 0 0
8 6 5 6 8 10 11 11 11 12 11 9 8 9 10 10 10 10 11 12 12 11 9 8 7 6 5 5 5 4 3 3 5 5 3 1 0 0 0 0 0 0 0
9 9 7 6 7 9 10 11 12 13 12 9 8 9 10 10 8 8 9 11 12 11 10 9 7 6 5 5 4 3 2 1 3 3 2 1 0 0 0 0 0 0 0
9 9 8 6 6 6 9 10 11 12 12 9 7 7 7 7 6 4 5 7 9 9 9 9 8 6 5 3 2 2 1 1 1 1 2 1 1 0 0 0 0 0 0
9 8 7 7 6 7 9 10 10 11 10 8 6 5 6 6 5 4 3 5 7 7 8 8 8 7 6 4 2 0 0 0 0 1 2 2 2 1 0 0 0 0 1
8 7 7 7 8 9 10 11 11 11 10 9 8 7 7 7 6 4 3 5 6 6 7 6 6 5 5 5 3 1 1 0 0 0 1 1 1 1 0 0 0 0 1
7 7 8 9 10 11 11 13 14 14 12 10 9 9 8 8 6 4 3 5 6 6 6 6 4 3 4 3 3 2 1 0 0 0 0 0 0 0 0 0 1 1 1
7 7 8 10 11 11 11 13 15 15 14 12 11 10 10 8 5 3 3 5 7 7 7 6 4 3 2 1 1 2 1 0 0 0 0 0 0 0 0 0 1 2 2
8 8 8 9 9 9 9 10 13 14 13 13 12 12 12 10 7 2 2 4 7 8 7 6 4 2 1 0 0 0 0 0 0 0 0 0 0 0 0 0 1 1 1
9 9 9 8 7 7 7 8 11 13 13 13 13 13 13 12 9 4 2 2 5 8 8 7 4 2 0 0 0 0 0 0 0 0 0 1 1 1 0 0 0 0 0
9 9 8 7 7 6 6 8 11 13 14 14 14 14 13 13 11 8 4 2 3 6 7 6 4 2 0 0 0 0 0 0 0 0 1 2 2 2 1 0 0 0 0
8 8 7 7 6 6 6 7 8 10 12 13 13 13 13 13 13 12 9 6 4 5 5 5 3 1 0 0 0 0 0 0 0 1 2 3 3 3 1 0 0 0 0
7 6 6 6 6 6 6 5 5 5 7 8 9 10 11 11 12 12 11 9 7 6 6 6 5 3 1 1 0 0 0 0 0 1 2 3 3 3 2 1 0 0 0
5 4 4 5 6 6 6 4 3 3 3 4 5 6 7 7 7 7 7 8 7 6 7 8 7 6 4 2 1 1 0 0 0 0 1 1 3 3 3 3 2 1 1
3 3 3 4 5 6 5 4 3 3 3 3 3 3 3 3 2 1 2 3 3 4 8 10 9 8 6 5 4 3 1 0 0 0 0 1 2 3 3 3 3 2 2
2 2 3 3 4 4 4 3 2 2 2 2 2 1 1 1 0 0 0 1 2 4 9 10 10 9 8 7 6 5 3 2 1 1 1 1 3 3 3 3 3 2 1
1 1 1 2 2 1 1 1 1 1 1 1 1 0 0 0 0 0 0 2 3 5 8 9 10 10 10 9 8 6 6 5 3 3 2 3 3 3 3 3 3 2 1
0 0 0 1 1 0 0 0 0 0 0 0 0 0 0 0 0 0 0 1 3 4 5 7 8 9 10 9 9 8 7 6 5 4 3 3 3 3 3 3 3 2 1
1 0 0 0 1 1 0 0 0 0 0 0 0 0 0 0 0 0 0 0 1 2 3 4 6 7 9 10 10 10 9 7 6 5 4 3 3 3 3 3 3 2 1
2 1 0 1 2 1 0 0 0 0 0 0 0 0 0 0 0 1 1 1 1 1 2 3 3 4 6 8 10 11 10 8 6 6 4 3 3 3 3 3 3 2 1
2 2 1 1 1 1 0 0 0 0 0 0 0 0 0 0 0 1 1 2 1 1 1 1 2 2 3 4 6 7 8 7 6 6 4 3 3 3 3 3 3 1 0
2 2 2 1 0 0 0 0 0 0 0 0 0 0 0 0 0 0 1 1 1 1 0 0 1 1 1 1 2 3 4 5 5 5 4 3 3 3 3 3 2 1 0
1 1 1 0 0 0 0 0 0 0 0 0 0 0 0 0 0 0 0 0 0 0 0 1 1 1 1 1 1 1 1 1 2 4 4 4 3 3 3 3 1 0 0
0 0 0 0 0 0 0 0 0 0 0 0 0 0 0 0 0 0 0 0 0 0 1 2 2 2 2 2 2 1 1 0 1 2 4 4 3 3 3 2 1 0 0
Wind_Speed
5 4 3 4 4 3 3 3 3 2 2 2 2 2 2 2 2 2 2 2 2 2 2 2 3 2 2 2 2 2 2 2 3 2 1 1 1 1 1 1 1 2 2
5 4 4 3 2 2 3 2 2 2 1 2 2 2 2 2 2 2 2 2 2 2 2 2 2 1 2 1 2 2 2 2 3 3 1 1 1 1 1 1 1 1 1
4 4 3 3 3 3 3 2 2 2 1 1 1 2 2 1 2 2 2 2 2 2 2 2 2 1 1 1 2 2 2 1 2 2 1 1 0 0 0 1 1 1 2
4 4 4 4 4 3 3 2 2 2 2 2 2 2 2 2 2 1 2 2 1 1 1 2 2 2 2 2 1 2 1 1 1 1 1 1 1 0 1 1 2 1 2
4 4 4 3 3 3 2 2 2 2 2 2 2 1 1 2 2 1 2 2 1 1 1 1 1 1 1 1 1 2 2 2 2 2 2 1 1 1 2 2 2 2 2
4 3 3 3 3 3 3 3 2 2 2 2 2 2 2 2 2 2 2 1 1 1 1 1 1 1 1 2 2 3 3 3 3 2 2 3 4 3 2 2 2 1 3
3 2 2 2 3 3 3 3 3 3 2 2 2 2 3 3 2 2 2 2 2 2 1 1 2 1 1 2 2 2 3 4 4 4 4 5 4 4 4 4 3 4 4
2 1 1 2 2 2 3 3 3 3 3 3 3 3 3 3 3 3 3 2 2 2 2 2 2 2 2 1 2 2 3 4 4 4 4 5 5 4 5 4 4 3 3
2 2 2 2 2 2 3 3 3 3 3 3 3 3 3 3 3 3 3 2 1 2 2 2 2 2 2 1 2 2 3 4 4 4 4 5 5 5 4 2 2 2 3
2 2 1 2 2 2 3 3 2 3 3 2 2 2 3 3 3 3 3 2 2 2 2 2 2 2 3 1 2 2 3 4 3 3 3 3 3 4 5 5 4 4 2
2 2 1 1 2 2 2 2 2 2 2 2 2 2 2 3 3 4 4 3 3 3 2 2 2 3 3 2 2 3 5 4 3 2 2 2 2 2 3 4 4 4 4
3 2 1 1 1 1 1 1 2 2 2 2 2 2 2 2 3 3 4 5 4 3 4 3 3 4 4 4 3 4 4 2 2 2 2 3 3 3 3 3 4 4 4
3 2 2 1 1 1 1 1 1 2 2 2 2 2 3 2 2 4 4 5 6 4 4 4 4 4 4 4 5 4 3 2 2 3 4 4 3 3 2 2 2 3 3
3 2 1 1 1 0 0 1 1 1 2 2 3 3 3 2 2 2 2 3 4 4 3 3 3 3 3 4 4 3 3 3 3 4 4 3 2 2 2 2 2 2 2
2 1 1 1 1 1 0 1 1 2 3 3 3 3 3 4 4 4 3 3 3 3 2 1 1 1 2 2 2 3 2 2 3 3 3 3 3 3 3 2 2 2 3
3 2 1 1 1 1 0 1 2 1 1 2 3 3 3 4 4 4 4 4 4 3 2 1 2 2 3 3 3 3 3 3 3 3 3 3 3 3 3 2 2 3 4
3 3 2 1 1 1 1 1 1 3 2 1 1 1 2 3 3 3 3 3 2 3 2 2 2 3 3 3 3 3 4 4 3 3 4 4 3 3 3 4 3 3 4
2 3 2 1 1 1 1 1 1 1 2 2 2 2 2 2 2 2 1 1 0 1 2 3 3 3 3 3 3 4 4 3 3 3 4 4 4 4 4 4 4 5 4
3 2 2 1 1 1 1 1 0 1 1 1 1 2 2 1 1 1 1 1 1 2 3 3 4 4 3 3 3 4 4 4 4 4 4 4 4 4 4 5 4 5 5
3 3 3 2 1 1 1 1 1 1 1 1 1 2 1 1 1 1 0 1 2 2 3 4 4 4 3 3 3 3 4 4 4 4 4 4 4 4 5 5 5 4 4
2 3 3 2 2 2 1 1 1 2 1 2 2 2 1 1 1 1 2 2 2 3 3 4 4 4 3 3 3 4 4 4 4 4 4 4 4 4 4 4 4 4 4
2 2 2 2 2 2 2 1 2 2 2 2 2 1 2 1 1 2 2 3 3 3 3 3 3 3 3 3 4 4 4 4 4 4 4 4 4 4 4 4 4 4 4
2 2 2 2 2 2 1 1 2 2 2 2 2 2 1 2 2 2 3 3 3 3 3 2 3 3 3 3 3 4 4 5 4 4 4 4 4 4 4 4 4 4 4
2 2 2 2 2 2 2 2 2 2 2 2 2 2 2 2 2 3 3 3 3 3 3 2 3 4 5 4 3 4 4 4 5 4 5 5 5 4 4 4 4 5 5
2 2 2 2 2 2 2 2 2 2 2 2 2 2 2 2 2 2 3 3 3 3 4 3 3 3 4 6 6 5 5 5 5 4 4 4 5 5 5 5 4 4 4
1 2 2 1 1 1 1 2 2 2 2 2 2 2 2 2 2 2 2 3 3 3 3 3 4 5 6 5 7 7 6 5 5 5 5 4 5 5 5 4 5 4 4
Wind_Direction
183 188 186 189 194 194 206 220 220 219 210 205 199 194 195 195 189 193 222 216 212 237 249 238 251 239 224 212 195 192 197 193 223 259 249 255 241 251 271 258 244 248 270
183 178 189 193 185 193 215 229 218 212 199 194 189 186 192 195 188 195 231 228 217 236 258 251 261 244 223 209 190 193 199 199 200 226 241 251 249 252 262 266 285 268 273
175 177 184 192 195 203 211 214 206 198 180 168 168 189 200 203 193 206 214 217 215 232 238 230 246 222 234 223 198 193 200 198 191 196 227 215 244 305 306 297 286 290 283
171 180 193 205 207 207 204 201 199 190 182 184 192 211 212 208 209 217 212 207 211 234 239 230 234 223 231 222 207 207 196 187 179 185 201 211 224 216 204 250 277 272 274
171 183 202 206 199 193 193 197 193 187 192 181 182 215 227 210 224 214 214 212 211 234 263 258 244 236 229 215 209 202 190 191 195 203 210 213 219 210 221 214 241 274 271
172 189 193 183 183 194 199 192 187 189 185 173 194 208 218 233 233 193 189 209 211 212 247 282 274 264 269 228 217 196 184 191 206 212 220 231 237 228 213 210 218 247 267
171 181 182 183 190 203 199 187 196 194 179 188 208 215 229 246 228 195 186 186 197 211 229 256 279 301 264 264 252 234 227 223 208 208 224 237 235 220 206 220 225 231 245
163 173 182 185 198 196 187 198 206 194 189 200 214 222 235 243 217 196 183 183 192 217 232 236 250 279 284 259 254 257 258 252 237 227 237 245 243 224 211 218 224 236 256
167 188 199 190 188 180 192 207 203 191 198 206 211 216 226 251 229 204 179 185 208 244 254 253 248 259 279 230 219 258 281 283 264 250 251 259 253 235 205 182 191 215 256
183 192 182 175 181 191 202 204 193 188 205 209 222 224 223 240 243 217 193 201 225 253 273 269 253 260 268 227 216 237 265 277 288 294 284 282 262 237 210 206 209 221 245
173 154 146 151 182 195 195 193 180 184 192 204 228 243 238 242 246 231 212 209 223 234 251 264 264 262 256 243 231 237 252 264 268 263 271 278 272 254 236 222 216 218 234
141 135 150 182 187 166 174 194 181 174 191 222 235 267 265 255 242 240 227 222 221 225 243 253 257 255 254 253 250 265 267 260 259 262 266 269 270 266 258 242 230 231 238
133 148 172 180 179 151 170 193 198 187 202 227 233 253 270 266 257 249 237 233 226 225 241 249 260 262 262 259 260 263 251 238 243 254 261 266 267 269 268 263 252 247 254
142 161 175 175 198 204 188 199 203 210 220 228 234 244 258 265 266 264 253 244 239 239 254 263 262 260 261 266 268 255 242 235 233 247 260 270 273 265 258 257 260 258 261
142 155 165 192 208 220 237 243 231 227 210 216 237 241 243 253 255 243 231 238 233 234 233 249 277 294 291 287 277 269 260 253 249 252 257 266 266 263 265 260 251 244 243
152 166 176 190 211 220 219 345 355 296 254 222 229 230 247 251 272 261 239 236 229 200 172 225 254 265 266 269 272 274 264 256 254 254 255 257 259 259 264 258 242 241 250
163 173 180 187 197 202 197 209 307 340 352 338 294 262 244 267 283 283 258 241 227 164 182 239 251 256 264 267 266 267 268 265 256 253 256 258 259 257 256 257 252 250 253
167 174 171 179 191 210 220 228 222 249 302 315 324 322 293 278 293 299 284 115 22 201 241 253 258 263 268 270 271 273 275 275 264 262 262 261 258 257 257 257 254 253 255
180 187 186 183 199 213 214 217 230 245 265 294 331 341 345 349 25 9 98 147 247 263 264 265 265 265 268 269 268 267 266 266 268 264 261 260 258 256 257 258 258 256 252
195 204 201 196 205 204 202 203 228 247 262 280 286 293 321 6 13 354 330 259 263 273 275 274 273 273 273 271 271 269 267 265 267 265 265 262 259 255 256 257 255 254 251
199 206 206 203 210 213 219 226 234 236 243 252 261 267 228 217 268 281 279 271 263 266 270 273 275 277 275 271 268 270 273 272 270 270 271 268 262 260 259 256 256 254 254
192 201 206 210 215 220 220 223 226 230 240 251 265 272 238 232 249 267 270 270 270 268 272 272 275 278 277 275 275 274 274 276 276 274 274 273 269 265 263 260 255 252 246
184 195 208 219 215 209 218 236 236 238 243 249 254 265 264 256 259 263 271 279 283 284 285 284 288 293 295 290 284 274 271 273 275 275 273 270 267 265 263 262 260 258 255
189 199 210 220 223 226 234 246 254 256 260 263 266 273 277 277 277 278 280 289 292 289 289 288 287 293 304 306 299 290 284 284 282 272 264 262 264 265 264 262 263 260 259
197 203 213 217 219 225 233 245 251 253 263 267 268 275 281 283 287 294 303 305 303 302 306 304 297 297 301 302 301 298 294 286 278 276 265 255 256 260 261 262 262 263 258
207 203 203 201 209 221 232 245 255 255 258 267 273 279 283 284 288 298 303 305 304 303 307 305 302 302 303 302 302 300 293 285 276 266 257 250 250 252 255 255 255 252 248